�������l�o���
Date,Time,MP-1(��Sv/h),MP-2(��Sv/h),MP-3(��Sv/h),MP-4(��Sv/h),MP-5(��Sv/h),MP-6(��Sv/h),MP-7(��Sv/h),����,����(m/s),���J
2023/04/18,00:00,0.151,0.135,0.213,0.210,0.210,0.121,0.076,��,6.2,��
2023/04/18,00:10,0.152,0.135,0.214,0.209,0.211,0.120,0.077,��,7.4,��
2023/04/18,00:20,0.153,0.135,0.214,0.209,0.211,0.120,0.076,���k��,9.3,��
2023/04/18,00:30,0.151,0.135,0.214,0.209,0.211,0.119,0.076,��,7.6,��
2023/04/18,00:40,0.152,0.135,0.212,0.210,0.210,0.120,0.076,��,6.0,��
2023/04/18,00:50,0.152,0.135,0.213,0.210,0.211,0.120,0.076,��,7.1,��
2023/04/18,01:00,0.151,0.136,0.213,0.209,0.212,0.120,0.076,��,7.2,��
2023/04/18,01:10,0.152,0.134,0.214,0.208,0.212,0.120,0.076,��,7.4,��
2023/04/18,01:20,0.152,0.135,0.213,0.210,0.212,0.120,0.077,��,6.6,��
2023/04/18,01:30,0.151,0.135,0.214,0.208,0.211,0.120,0.076,��,4.9,��
2023/04/18,01:40,0.152,0.135,0.213,0.208,0.212,0.120,0.077,���k��,3.5,��
2023/04/18,01:50,0.152,0.134,0.213,0.209,0.211,0.119,0.076,���k��,4.1,��
2023/04/18,02:00,0.151,0.135,0.213,0.209,0.211,0.119,0.077,���k��,4.5,��
2023/04/18,02:10,0.152,0.136,0.212,0.209,0.211,0.120,0.076,���k��,3.9,��
2023/04/18,02:20,0.152,0.135,0.214,0.208,0.211,0.121,0.077,��,4.0,��
2023/04/18,02:30,0.151,0.135,0.213,0.210,0.211,0.120,0.076,��,4.7,��
2023/04/18,02:40,0.152,0.136,0.213,0.209,0.212,0.119,0.077,��,4.2,��
2023/04/18,02:50,0.152,0.135,0.213,0.209,0.212,0.120,0.076,��,4.3,��
2023/04/18,03:00,0.151,0.135,0.213,0.209,0.212,0.120,0.077,���쐼,5.2,��
2023/04/18,03:10,0.152,0.135,0.214,0.209,0.211,0.120,0.076,���쐼,6.1,��
2023/04/18,03:20,0.151,0.136,0.213,0.209,0.211,0.120,0.076,��,6.4,��
2023/04/18,03:30,0.152,0.135,0.213,0.209,0.211,0.120,0.077,��,6.7,��
2023/04/18,03:40,0.151,0.135,0.213,0.211,0.212,0.120,0.077,��,5.6,��
2023/04/18,03:50,0.152,0.136,0.214,0.210,0.212,0.120,0.076,��,5.4,��
2023/04/18,04:00,0.151,0.135,0.215,0.208,0.211,0.120,0.076,��,4.9,��
2023/04/18,04:10,0.151,0.134,0.213,0.209,0.212,0.120,0.077,��,4.9,��
2023/04/18,04:20,0.152,0.135,0.213,0.210,0.211,0.121,0.077,��,3.8,��
2023/04/18,04:30,0.151,0.134,0.214,0.209,0.211,0.119,0.076,��,2.8,��
2023/04/18,04:40,0.151,0.134,0.214,0.210,0.212,0.120,0.076,��,2.3,��
2023/04/18,04:50,0.152,0.135,0.213,0.209,0.211,0.120,0.076,��,1.3,��
2023/04/18,05:00,0.152,0.136,0.214,0.209,0.211,0.119,0.077,���쐼,1.2,��
2023/04/18,05:10,0.151,0.136,0.213,0.209,0.211,0.120,0.077,���쐼,0.7,��
2023/04/18,05:20,0.152,0.135,0.214,0.210,0.211,0.119,0.077,���k��,1.4,��
2023/04/18,05:30,0.152,0.136,0.214,0.209,0.211,0.119,0.077,���k��,3.8,��
2023/04/18,05:40,0.152,0.136,0.214,0.210,0.210,0.120,0.077,���k��,3.2,��
2023/04/18,05:50,0.152,0.135,0.212,0.209,0.211,0.120,0.076,��,2.4,��
2023/04/18,06:00,0.151,0.135,0.213,0.209,0.211,0.119,0.076,���쐼,1.5,��
2023/04/18,06:10,0.152,0.136,0.213,0.209,0.212,0.119,0.076,��,2.6,��
2023/04/18,06:20,0.151,0.135,0.213,0.211,0.211,0.120,0.076,���k��,3.5,��
2023/04/18,06:30,0.151,0.134,0.213,0.209,0.211,0.119,0.077,���k��,4.1,��
2023/04/18,06:40,0.152,0.135,0.213,0.209,0.210,0.120,0.076,���k��,5.1,��
2023/04/18,06:50,0.152,0.135,0.213,0.210,0.211,0.120,0.077,���k��,5.4,��
2023/04/18,07:00,0.152,0.134,0.213,0.209,0.211,0.120,0.076,���k��,3.8,��
2023/04/18,07:10,0.152,0.135,0.213,0.208,0.212,0.120,0.077,���k��,3.5,��
2023/04/18,07:20,0.150,0.135,0.214,0.210,0.211,0.120,0.077,���k��,3.1,��
2023/04/18,07:30,0.151,0.135,0.214,0.207,0.212,0.120,0.077,���k��,4.4,��
2023/04/18,07:40,0.150,0.135,0.212,0.208,0.211,0.120,0.076,���k��,3.7,��
2023/04/18,07:50,0.151,0.135,0.212,0.209,0.211,0.119,0.076,�k��,2.9,��
2023/04/18,08:00,0.152,0.135,0.211,0.207,0.212,0.119,0.077,�k�k��,2.5,��
2023/04/18,08:10,0.150,0.135,0.214,0.209,0.210,0.119,0.076,�k��,1.6,��
2023/04/18,08:20,0.152,0.135,0.210,0.207,0.212,0.120,0.076,���쓌,0.6,��
2023/04/18,08:30,0.151,0.134,0.213,0.208,0.210,0.118,0.075,��,0.8,��
2023/04/18,08:40,0.151,0.134,0.213,0.208,0.212,0.120,0.076,��,1.6,��
2023/04/18,08:50,0.151,0.135,0.212,0.205,0.210,0.119,0.076,���쓌,1.8,��
2023/04/18,09:00,0.150,0.134,0.212,0.208,0.210,0.119,0.076,���쓌,1.5,��
2023/04/18,09:10,0.152,0.135,0.211,0.208,0.210,0.119,0.077,���쓌,1.9,��
2023/04/18,09:20,0.150,0.135,0.214,0.209,0.210,0.120,0.076,�쓌,2.5,��
2023/04/18,09:30,0.152,0.135,0.212,0.210,0.212,0.120,0.076,���쓌,2.4,��
2023/04/18,09:40,0.150,0.135,0.214,0.209,0.209,0.121,0.077,���쓌,2.4,��
2023/04/18,09:50,0.151,0.136,0.213,0.210,0.212,0.120,0.077,�쓌,2.8,��
2023/04/18,10:00,0.151,0.135,0.214,0.209,0.211,0.121,0.076,�쓌,2.2,��
2023/04/18,10:10,0.151,0.135,0.213,0.210,0.211,0.120,0.077,�쓌,1.4,��
2023/04/18,10:20,0.152,0.136,0.214,0.208,0.211,0.120,0.076,�쓌,1.2,��
2023/04/18,10:30,0.150,0.134,0.213,0.210,0.212,0.121,0.077,���쓌,2.6,��
2023/04/18,10:40,0.153,0.135,0.212,0.208,0.211,0.120,0.076,�쓌,3.1,��
2023/04/18,10:50,0.151,0.135,0.214,0.210,0.213,0.120,0.077,���쓌,3.8,��
2023/04/18,11:00,0.151,0.136,0.213,0.210,0.212,0.118,0.076,�쓌,2.5,��
2023/04/18,11:10,0.152,0.135,0.214,0.208,0.211,0.121,0.077,�쓌,3.0,��
2023/04/18,11:20,0.151,0.136,0.213,0.211,0.212,0.120,0.077,�쓌,2.5,��
2023/04/18,11:30,0.152,0.135,0.214,0.209,0.210,0.119,0.076,���쓌,2.6,��
2023/04/18,11:40,0.151,0.136,0.213,0.209,0.212,0.120,0.077,�쓌,4.7,��
2023/04/18,11:50,0.151,0.135,0.213,0.210,0.211,0.120,0.077,��쓌,5.1,��
2023/04/18,12:00,0.151,0.135,0.214,0.208,0.210,0.121,0.076,��쓌,5.2,��
2023/04/18,12:10,0.150,0.136,0.212,0.209,0.212,0.120,0.077,��쓌,5.1,��
2023/04/18,12:20,0.151,0.135,0.214,0.208,0.210,0.121,0.076,��쓌,5.4,��
2023/04/18,12:30,0.151,0.135,0.213,0.211,0.212,0.120,0.077,��쓌,6.9,��
2023/04/18,12:40,0.152,0.135,0.214,0.210,0.210,0.120,0.076,��쓌,6.9,��
2023/04/18,12:50,0.153,0.135,0.213,0.212,0.211,0.120,0.077,��쓌,7.8,��
2023/04/18,13:00,0.150,0.135,0.213,0.208,0.212,0.121,0.076,��쓌,7.7,��
2023/04/18,13:10,0.152,0.136,0.213,0.210,0.211,0.120,0.077,��쓌,7.2,��
2023/04/18,13:20,0.151,0.135,0.214,0.210,0.212,0.120,0.077,��,7.7,��
2023/04/18,13:30,0.152,0.136,0.213,0.209,0.211,0.120,0.077,��,7.2,��
2023/04/18,13:40,0.151,0.136,0.213,0.209,0.212,0.119,0.076,��,7.9,��
2023/04/18,13:50,0.151,0.136,0.214,0.211,0.211,0.120,0.077,��,8.1,�L
2023/04/18,14:00,0.151,0.135,0.216,0.210,0.212,0.121,0.076,��,8.6,�L
2023/04/18,14:10,0.152,0.135,0.213,0.210,0.211,0.121,0.077,��,8.1,�L
2023/04/18,14:20,0.151,0.135,0.215,0.210,0.213,0.121,0.077,��,7.5,�L
2023/04/18,14:30,0.153,0.136,0.215,0.210,0.214,0.121,0.077,��쐼,5.1,�L
2023/04/18,14:40,0.153,0.137,0.215,0.210,0.213,0.122,0.078,��쐼,5.9,�L
2023/04/18,14:50,0.153,0.137,0.215,0.211,0.213,0.121,0.078,��쐼,6.7,�L
2023/04/18,15:00,0.152,0.137,0.215,0.213,0.212,0.122,0.079,��,5.7,�L
2023/04/18,15:10,0.154,0.137,0.216,0.212,0.214,0.121,0.078,��,5.6,�L
2023/04/18,15:20,0.152,0.137,0.215,0.214,0.212,0.122,0.080,��,5.7,�L
2023/04/18,15:30,0.154,0.138,0.218,0.213,0.216,0.123,0.079,��,5.5,�L
2023/04/18,15:40,0.154,0.139,0.218,0.213,0.214,0.124,0.080,��쐼,4.4,�L
2023/04/18,15:50,0.155,0.138,0.217,0.215,0.215,0.124,0.081,��,3.7,�L
2023/04/18,16:00,0.156,0.139,0.219,0.213,0.215,0.124,0.080,��,3.9,�L
2023/04/18,16:10,0.155,0.139,0.218,0.214,0.215,0.124,0.080,��,3.9,�L
2023/04/18,16:20,0.154,0.138,0.217,0.212,0.215,0.123,0.080,��,4.0,�L
2023/04/18,16:30,0.154,0.138,0.217,0.212,0.212,0.121,0.079,��,2.9,�L
2023/04/18,16:40,0.154,0.137,0.215,0.212,0.214,0.122,0.079,��쐼,3.6,�L
2023/04/18,16:50,0.152,0.138,0.217,0.211,0.212,0.122,0.078,��쐼,2.9,��
2023/04/18,17:00,0.154,0.136,0.215,0.212,0.214,0.122,0.078,��쐼,3.2,��
2023/04/18,17:10,0.153,0.136,0.214,0.210,0.213,0.122,0.078,��쐼,3.1,��
2023/04/18,17:20,0.153,0.137,0.215,0.210,0.213,0.121,0.078,�쐼,2.6,�L
2023/04/18,17:30,0.154,0.136,0.215,0.211,0.213,0.121,0.078,�쐼,1.7,�L
2023/04/18,17:40,0.152,0.137,0.214,0.210,0.212,0.121,0.077,��,2.0,��
2023/04/18,17:50,0.153,0.136,0.216,0.211,0.212,0.121,0.078,��쐼,0.9,��
2023/04/18,18:00,0.152,0.136,0.214,0.210,0.211,0.120,0.077,���쐼,2.7,��
2023/04/18,18:10,0.154,0.136,0.215,0.211,0.212,0.120,0.077,�쐼,3.3,��
2023/04/18,18:20,0.152,0.136,0.214,0.210,0.211,0.120,0.076,���쐼,4.2,�L
2023/04/18,18:30,0.152,0.136,0.215,0.210,0.213,0.121,0.077,���쐼,5.0,�L
2023/04/18,18:40,0.153,0.136,0.215,0.210,0.212,0.121,0.077,���쐼,4.7,��
2023/04/18,18:50,0.152,0.136,0.214,0.209,0.211,0.121,0.077,���쐼,3.5,��
2023/04/18,19:00,0.153,0.136,0.215,0.209,0.213,0.120,0.077,�쐼,3.5,��
2023/04/18,19:10,0.151,0.136,0.216,0.211,0.211,0.120,0.077,���쐼,3.2,��
2023/04/18,19:20,0.153,0.136,0.213,0.209,0.212,0.121,0.077,�쐼,3.0,�L
2023/04/18,19:30,0.152,0.137,0.215,0.210,0.212,0.121,0.077,�쐼,1.2,��
2023/04/18,19:40,0.154,0.136,0.215,0.211,0.213,0.120,0.076,��,1.0,��
2023/04/18,19:50,0.152,0.136,0.215,0.210,0.212,0.120,0.077,��쐼,2.0,��
2023/04/18,20:00,0.153,0.136,0.214,0.210,0.211,0.121,0.077,��,1.4,��
2023/04/18,20:10,0.153,0.136,0.214,0.210,0.213,0.121,0.077,��,1.9,��
2023/04/18,20:20,0.153,0.135,0.214,0.210,0.212,0.120,0.077,��쐼,1.6,��
2023/04/18,20:30,0.154,0.135,0.215,0.211,0.213,0.120,0.077,�쐼,1.3,��
2023/04/18,20:40,0.152,0.136,0.213,0.210,0.212,0.120,0.078,�쐼,0.9,��
2023/04/18,20:50,0.154,0.136,0.214,0.211,0.212,0.121,0.078,���쐼,2.0,��
2023/04/18,21:00,0.152,0.136,0.215,0.210,0.211,0.120,0.076,���쐼,2.2,��
2023/04/18,21:10,0.152,0.136,0.214,0.212,0.212,0.121,0.077,���쐼,1.7,��
2023/04/18,21:20,0.152,0.136,0.215,0.210,0.214,0.120,0.077,�쐼,1.8,��
2023/04/18,21:30,0.152,0.137,0.215,0.211,0.210,0.120,0.078,�쐼,2.4,��
2023/04/18,21:40,0.153,0.136,0.214,0.211,0.212,0.120,0.077,�쐼,3.4,��
2023/04/18,21:50,0.152,0.134,0.215,0.210,0.211,0.121,0.078,�쐼,4.1,��
2023/04/18,22:00,0.153,0.136,0.214,0.210,0.211,0.120,0.077,��쐼,4.8,��
2023/04/18,22:10,0.152,0.135,0.215,0.211,0.212,0.120,0.077,��쐼,4.9,��
2023/04/18,22:20,0.152,0.136,0.214,0.211,0.212,0.120,0.077,��쐼,4.9,��
2023/04/18,22:30,0.153,0.137,0.214,0.211,0.212,0.121,0.077,��쐼,5.0,��
2023/04/18,22:40,0.152,0.134,0.214,0.210,0.211,0.121,0.077,�쐼,4.7,��
2023/04/18,22:50,0.152,0.136,0.214,0.211,0.213,0.120,0.077,�쐼,4.4,�L
2023/04/18,23:00,0.152,0.136,0.213,0.210,0.213,0.121,0.077,��쐼,3.4,��
2023/04/18,23:10,0.153,0.136,0.214,0.208,0.211,0.120,0.077,��쐼,2.9,��
2023/04/18,23:20,0.152,0.136,0.214,0.210,0.211,0.121,0.077,��,2.5,��
2023/04/18,23:30,0.152,0.136,0.214,0.210,0.213,0.120,0.077,��,2.0,��
2023/04/18,23:40,0.152,0.135,0.215,0.210,0.211,0.120,0.077,��쐼,0.8,��
2023/04/18,23:50,0.153,0.136,0.215,0.210,0.211,0.121,0.077,-,CALM,��
